Regional Weather Roundup
Issued by NWS

Home | Current Version | Previous Version | Text Only | Print | Product List | Glossary Off
Versions: 1 2 3 4 5 6 7 8 9 10 11 12 13 14 15 16 17 18 19 20 21 22 23 24 25 26 27 28 29 30 31 32 33 34 35 36 37 38 39 40 41 42 43 44 45 46 47 48 49 50

849
ASUS43 KLMK 222310
RWRKY
KENTUCKY REGIONAL WEATHER ROUNDUP
NATIONAL WEATHER SERVICE LOUISVILLE KY
600 PM EST SUN JAN 22 2017

NOTE "FAIR" INDICATES FEW OR NO CLOUDS BELOW 12,000 FEET
WITH NO SIGNIFICANT WEATHER AND/OR OBSTRUCTIONS TO VISIBILITY.

KYZ001>023-026-027-061>063-070>075-230000-
WESTERN AND SOUTH CENTRAL KENTUCKY

CITY           SKY/WX    TMP DP  RH WIND       PRES   REMARKS
PADUCAH        LGT RAIN  58  51  78 NE10      29.38R
HENDERSON      CLOUDY    57  48  72 NE7       29.39R
OWENSBORO      NOT AVBL
HOPKINSVILLE   CLOUDY    59  54  83 N10       29.32S
BOWLING GREEN  CLOUDY    61  52  72 NE10      29.34R
GLASGOW        CLOUDY    59  51  75 NE7       29.33F
$$

KYZ024-025-028>034-038-045-046-053-230000-
NORTH CENTRAL KENTUCKY

CITY           SKY/WX    TMP DP  RH WIND       PRES   REMARKS
LOUISVILLE/SDF CLOUDY    60  49  66 NE8       29.39R
LOUISVILLE/LOU CLOUDY    61  50  67 NE7       29.40R
FORT KNOX      CLOUDY    57  52  82 NE6       29.37R
$$

KYZ035>037-039>044-047>052-055>060-089>105-230000-
NORTHEAST KENTUCKY

CITY           SKY/WX    TMP DP  RH WIND       PRES   REMARKS
LEXINGTON      LGT RAIN  57  51  80 NE9       29.40R
COVINGTON      MOCLDY    60  49  66 NE14      29.42F
FRANKFORT      CLOUDY    59  49  69 E8        29.39S
$$

KYZ054-064>069-076>088-106>120-230000-
SOUTHEAST KENTUCKY

CITY           SKY/WX    TMP DP  RH WIND       PRES   REMARKS
JACKSON        CLOUDY    54  52  93 VRB5      29.38F
LONDON         CLOUDY    56  51  84 N6        29.34F
SOMERSET       CLOUDY    52  52 100 N6        29.35F
MIDDLESBORO    CLOUDY    56  55  95 CALM      29.34F
MONTICELLO     CLOUDY    55  51  86 N15       29.35F
$$





USA.gov is the U.S. government's official web portal to all federal, state and local government web resources and services.